Overview Statistics Trail Chart Weather Telemetry Raw packets
 

This is the latest recevied weather packets stored in our database for station/object N0KWA. If no packets are shown the sender has not sent any weather packets the latest 10 day(s).

<< 1 2 3 4 5 6 7 >>
Time Temp. Humidity Pressure Rain* Wind** Luminosity Snow
1788555086 26.11° C 99% 1015.2 hPa 0 mm - 42 W/m² -
1788554777 26.11° C 99% 1015.2 hPa 0 mm - 26 W/m² -
1788554473 26.11° C 99% 1015.2 hPa 0 mm - 27 W/m² -
1788554169 26.11° C 99% 1015.2 hPa 0 mm - 25 W/m² -
1788553865 26.67° C 99% 1015.3 hPa 0 mm - 23 W/m² -
1788553561 26.11° C 99% 1015.4 hPa 0 mm - 42 W/m² -
1788553256 26.11° C 99% 1015.4 hPa 0 mm - 43 W/m² -
1788552951 26.11° C 99% 1015.5 hPa 0 mm - 40 W/m² -
1788552646 26.11° C 99% 1015.4 hPa 0 mm - 42 W/m² -
1788552344 26.11° C 99% 1015.6 hPa 0 mm - 143 W/m² -
1788552040 26.11° C 99% 1015.6 hPa 0 mm - 46 W/m² -
1788551738 26.11° C 99% 1015.8 hPa 0 mm - 65 W/m² -
1788551432 26.11° C 99% 1015.6 hPa 0 mm - 50 W/m² -
1788551127 25.56° C 99% 1015.8 hPa 0 mm - 70 W/m² -
1788550822 25.56° C 99% 1015.9 hPa 0 mm - 72 W/m² -
1788550522 25.56° C 99% 1015.8 hPa 0 mm - 70 W/m² -
1788550218 25.56° C 99% 1015.8 hPa 0 mm - 44 W/m² -
1788549918 25.56° C 99% 1016.1 hPa 0 mm - 66 W/m² -
1788549615 25° C 99% 1016.3 hPa 0 mm - 53 W/m² -
1788549311 25° C 99% 1016.2 hPa 0 mm - 36 W/m² -
1788549007 25° C 99% 1016.4 hPa 0 mm - 49 W/m² -
1788548702 25° C 99% 1016.4 hPa 0 mm - 52 W/m² -
1788548398 25° C 99% 1016.5 hPa 0 mm - 34 W/m² -
1788548094 25° C 99% 1016.5 hPa 0 mm - 24 W/m² -
1788547789 24.44° C 99% 1016.9 hPa 0 mm - 21 W/m² -

* Rain latest hour (hover to see other rain measurements)
** Current wind speed in m/s (hover to see current wind gust speed)